TimeCDT,TemperatureF,Dew PointF,Humidity,Sea Level PressureIn,VisibilityMPH,Wind Direction,Wind SpeedMPH,Gust SpeedMPH,PrecipitationIn,Events,Conditions,WindDirDegrees,DateUTC
12:53 AM,39.9,28.9,65,29.99,10.0,Calm,Calm,-,N/A,,Clear,0,2012-11-01 05:53:00
1:53 AM,37.0,28.9,73,29.99,10.0,Calm,Calm,-,N/A,,Clear,0,2012-11-01 06:53:00
2:53 AM,36.0,28.9,76,29.99,10.0,Calm,Calm,-,N/A,,Clear,0,2012-11-01 07:53:00
3:53 AM,35.1,28.9,78,30.00,10.0,Calm,Calm,-,N/A,,Clear,0,2012-11-01 08:53:00
5:53 AM,33.1,28.0,82,30.02,10.0,Calm,Calm,-,N/A,,Clear,0,2012-11-01 10:53:00
6:53 AM,30.0,27.0,88,30.04,10.0,Calm,Calm,-,N/A,,Clear,0,2012-11-01 11:53:00
7:53 AM,33.1,28.9,85,30.06,10.0,Calm,Calm,-,N/A,,Clear,0,2012-11-01 12:53:00
8:53 AM,42.1,35.1,76,30.07,10.0,Calm,Calm,-,N/A,,Clear,0,2012-11-01 13:53:00
9:53 AM,51.1,33.1,50,30.08,10.0,Calm,Calm,-,N/A,,Clear,0,2012-11-01 14:53:00
10:53 AM,55.9,24.1,29,30.08,10.0,Variable,4.6,-,N/A,,Clear,0,2012-11-01 15:53:00
11:53 AM,60.1,24.1,25,30.06,10.0,West,6.9,-,N/A,,Clear,260,2012-11-01 16:53:00
12:53 PM,62.1,23.0,22,30.04,10.0,Variable,3.5,-,N/A,,Clear,0,2012-11-01 17:53:00
1:53 PM,64.9,25.0,22,30.01,10.0,WNW,8.1,-,N/A,,Clear,290,2012-11-01 18:53:00
2:53 PM,66.9,23.0,19,29.99,10.0,WNW,9.2,-,N/A,,Clear,290,2012-11-01 19:53:00
3:53 PM,66.9,26.1,21,29.99,10.0,West,8.1,-,N/A,,Clear,280,2012-11-01 20:53:00
4:53 PM,66.0,30.0,26,29.99,10.0,West,8.1,-,N/A,,Clear,280,2012-11-01 21:53:00
5:53 PM,61.0,30.9,32,30.00,10.0,NW,3.5,-,N/A,,Clear,320,2012-11-01 22:53:00
6:53 PM,53.1,32.0,45,29.99,10.0,Calm,Calm,-,N/A,,Clear,0,2012-11-01 23:53:00
7:53 PM,48.9,34.0,56,29.99,10.0,Calm,Calm,-,N/A,,Scattered Clouds,0,2012-11-02 00:53:00
8:53 PM,48.0,34.0,58,30.00,10.0,Calm,Calm,-,N/A,,Clear,0,2012-11-02 01:53:00
9:53 PM,46.9,35.1,63,30.00,10.0,Calm,Calm,-,N/A,,Mostly Cloudy,0,2012-11-02 02:53:00
10:53 PM,45.0,35.1,68,30.00,10.0,Calm,Calm,-,N/A,,Partly Cloudy,0,2012-11-02 03:53:00
11:53 PM,44.1,35.1,71,30.00,10.0,Calm,Calm,-,N/A,,Clear,0,2012-11-02 04:53:00